Weather History for Clinton, IA

Change the Weather History Date:

Saturday, January 19, 2013

  Actual Average Record
Temperature  
Mean Temperature 34 °F -  
Max Temperature 50 °F 30 °F 55 °F (2006)
Min Temperature 19 °F 11 °F -18 °F (1985)
Degree Days  
Heating Degree Days 30    
Moisture  
Dew Point 27 °F    
Average Humidity 65    
Maximum Humidity 75    
Minimum Humidity 47    
Precipitation  
Precipitation 0.00 in - - ()
Sea Level Pressure  
Sea Level Pressure 29.89 in    
Wind  
Wind Speed 16 mph (WSW)    
Max Wind Speed 37 mph    
Max Gust Speed 48 mph    
Visibility 10 miles    
Events      
Averages and records for this station are not official NWS values.
T = Trace of Precipitation, MM = Missing Value Source: NWS Daily Summary

Daily Weather History Graph

Daily Weather History Graph

Search for Another Location

Airport:

Trip Planner

Search our weather history database for the weather conditions in past years. The results will help you decide how hot, cold, wet, or windy it might be!

Date:

Astronomy

Jan. 19, 2013 Rise Set
Actual Time 7:24 AM CST 5:00 PM CST
Civil Twilight 6:53 AM CST 5:31 PM CST
Nautical Twilight 6:19 AM CST 6:05 PM CST
Astronomical Twilight 5:46 AM CST 6:38 PM CST
Moon 11:27 AM CST (1/19) 12:57 AM CST (1/19)
Length of Visible Light 10h 37m
Length of Day
9h 36m
First Quarter, 57% of the Moon is Illuminated
Jan 19
First Quarter
Jan 26
Full
Feb 3
Last Quarter
Feb 10
New
Feb 17
First Quarter

Hourly Weather History & Observations

Time (CST) Temp. Windchill Dew Point Humidity Pressure Visibility Wind Dir Wind Speed Gust Speed Precip Events Conditions
12:15 AM 37.4 °F 28.9 °F 28.4 °F 70% 29.92 in 10.0 mi WSW 13.8 mph - N/A   Clear
12:35 AM 37.4 °F 29.3 °F 28.4 °F 70% 29.92 in 10.0 mi WSW 12.7 mph - N/A   Clear
12:55 AM 37.4 °F 28.9 °F 28.4 °F 70% 29.92 in 10.0 mi WSW 13.8 mph - N/A   Clear
1:15 AM 37.4 °F 29.3 °F 28.4 °F 70% 29.92 in 10.0 mi SW 12.7 mph - N/A   Clear
1:35 AM 37.4 °F 28.2 °F 28.4 °F 70% 29.92 in 10.0 mi SW 16.1 mph - N/A   Clear
1:55 AM 39.2 °F 30.5 °F 30.2 °F 70% 29.92 in 10.0 mi SW 16.1 mph - N/A   Clear
2:15 AM 39.2 °F 30.8 °F 30.2 °F 70% 29.93 in 10.0 mi WSW 15.0 mph - N/A   Clear
2:35 AM 39.2 °F 31.2 °F 30.2 °F 70% 29.93 in 10.0 mi WSW 13.8 mph - N/A   Clear
2:55 AM 39.2 °F 30.8 °F 30.2 °F 70% 29.92 in 10.0 mi WSW 15.0 mph - N/A   Clear
3:15 AM 37.4 °F 28.9 °F 30.2 °F 75% 29.91 in 10.0 mi SW 13.8 mph - N/A   Clear
3:35 AM 37.4 °F 28.9 °F 30.2 °F 75% 29.90 in 10.0 mi SW 13.8 mph - N/A   Clear
3:55 AM 37.4 °F 29.3 °F 28.4 °F 70% 29.90 in 10.0 mi SW 12.7 mph - N/A   Clear
4:15 AM 37.4 °F 30.3 °F 28.4 °F 70% 29.90 in 10.0 mi SW 10.4 mph - N/A   Clear
4:35 AM 37.4 °F 29.8 °F 28.4 °F 70% 29.89 in 10.0 mi SW 11.5 mph - N/A   Clear
4:55 AM 39.2 °F 31.2 °F 28.4 °F 65% 29.89 in 10.0 mi SW 13.8 mph - N/A   Clear
5:15 AM 37.4 °F 28.9 °F 28.4 °F 70% 29.88 in 10.0 mi SW 13.8 mph - N/A   Clear
5:35 AM 37.4 °F 29.8 °F 28.4 °F 70% 29.88 in 10.0 mi SW 11.5 mph - N/A   Clear
5:55 AM 37.4 °F 29.3 °F 28.4 °F 70% 29.87 in 10.0 mi SW 12.7 mph - N/A   Clear
6:15 AM 37.4 °F 29.3 °F 28.4 °F 70% 29.87 in 10.0 mi SSW 12.7 mph - N/A   Clear
6:35 AM 37.4 °F 29.3 °F 28.4 °F 70% 29.87 in 10.0 mi SW 12.7 mph - N/A   Clear
6:55 AM 37.4 °F 28.5 °F 28.4 °F 70% 29.86 in 10.0 mi SW 15.0 mph - N/A   Clear
7:15 AM 37.4 °F 28.9 °F 28.4 °F 70% 29.86 in 10.0 mi SW 13.8 mph - N/A   Clear
7:35 AM 37.4 °F 30.3 °F 28.4 °F 70% 29.86 in 10.0 mi SW 10.4 mph - N/A   Clear
7:55 AM 37.4 °F 30.8 °F 28.4 °F 70% 29.87 in 10.0 mi WSW 9.2 mph - N/A   Partly Cloudy
8:15 AM 39.2 °F 31.2 °F 30.2 °F 70% 29.87 in 10.0 mi SW 13.8 mph - N/A   Mostly Cloudy
8:35 AM 39.2 °F 32.0 °F 30.2 °F 70% 29.86 in 10.0 mi SW 11.5 mph - N/A   Partly Cloudy
8:55 AM 39.2 °F 31.6 °F 30.2 °F 70% 29.86 in 10.0 mi SW 12.7 mph - N/A   Clear
9:15 AM 39.2 °F 31.6 °F 30.2 °F 70% 29.87 in 10.0 mi WSW 12.7 mph - N/A   Clear
9:35 AM 41.0 °F 33.1 °F 30.2 °F 65% 29.86 in 10.0 mi SW 15.0 mph - N/A   Clear
9:55 AM 42.8 °F 34.5 °F 30.2 °F 61% 29.84 in 10.0 mi SW 18.4 mph - N/A   Mostly Cloudy
10:15 AM 42.8 °F 35.4 °F 32.0 °F 66% 29.87 in 10.0 mi WSW 15.0 mph - N/A   Mostly Cloudy
10:35 AM 42.8 °F 34.5 °F 30.2 °F 61% 29.86 in 10.0 mi WSW 18.4 mph - N/A   Scattered Clouds
10:55 AM 42.8 °F 34.5 °F 30.2 °F 61% 29.85 in 10.0 mi WSW 18.4 mph - N/A   Clear
11:15 AM 42.8 °F 35.1 °F 32.0 °F 66% 29.84 in 10.0 mi SW 16.1 mph - N/A   Clear
11:35 AM 42.8 °F 35.1 °F 32.0 °F 66% 29.83 in 10.0 mi WSW 16.1 mph - N/A   Clear
11:55 AM 42.8 °F 34.5 °F 32.0 °F 66% 29.81 in 10.0 mi WSW 18.4 mph 21.9 mph N/A   Clear
12:15 PM 42.8 °F 34.5 °F 33.8 °F 70% 29.79 in 10.0 mi WSW 18.4 mph 21.9 mph N/A   Clear
12:35 PM 44.6 °F 36.6 °F 33.8 °F 66% 29.79 in 10.0 mi WSW 19.6 mph - N/A   Clear
12:55 PM 46.4 °F 39.2 °F 33.8 °F 62% 29.79 in 10.0 mi WSW 18.4 mph 24.2 mph N/A   Clear
1:15 PM 48.2 °F - 33.8 °F 58% 29.79 in 10.0 mi WSW 21.9 mph 27.6 mph N/A   Clear
1:35 PM 48.2 °F - 33.8 °F 58% 29.78 in 10.0 mi West 19.6 mph - N/A   Clear
1:55 PM 48.2 °F - 33.8 °F 58% 29.79 in 10.0 mi West 13.8 mph 23.0 mph N/A   Clear
2:15 PM 48.2 °F - 33.8 °F 58% 29.79 in 10.0 mi West 19.6 mph - N/A   Clear
2:35 PM 50.0 °F - 33.8 °F 54% 29.79 in 10.0 mi West 17.3 mph - N/A   Clear
2:55 PM 50.0 °F - 33.8 °F 54% 29.79 in 10.0 mi West 17.3 mph - N/A   Clear
3:15 PM 50.0 °F - 33.8 °F 54% 29.80 in 10.0 mi West 18.4 mph - N/A   Clear
3:35 PM 48.2 °F - 33.8 °F 58% 29.81 in 10.0 mi West 18.4 mph 21.9 mph N/A   Clear
3:55 PM 48.2 °F - 32.0 °F 54% 29.81 in 10.0 mi West 17.3 mph - N/A   Clear
4:15 PM 46.4 °F 39.2 °F 32.0 °F 57% 29.82 in 10.0 mi West 18.4 mph - N/A   Clear
4:35 PM 44.6 °F 37.8 °F 32.0 °F 61% 29.84 in 10.0 mi West 15.0 mph - N/A   Clear
4:55 PM 42.8 °F 35.8 °F 30.2 °F 61% 29.84 in 10.0 mi West 13.8 mph - N/A   Clear
5:15 PM 39.2 °F 31.6 °F 30.2 °F 70% 29.85 in 10.0 mi West 12.7 mph - N/A   Clear
5:35 PM 39.2 °F 31.2 °F 30.2 °F 70% 29.86 in 10.0 mi West 13.8 mph - N/A   Clear
5:55 PM 39.2 °F 29.6 °F 30.2 °F 70% 29.88 in 10.0 mi West 19.6 mph 24.2 mph N/A   Clear
6:15 PM 39.2 °F 31.6 °F 30.2 °F 70% 29.87 in 10.0 mi West 12.7 mph - N/A   Clear
6:35 PM 37.4 °F 28.9 °F 28.4 °F 70% 29.89 in 10.0 mi WNW 13.8 mph - N/A   Clear
6:55 PM 37.4 °F 28.2 °F 28.4 °F 70% 29.91 in 10.0 mi WNW 16.1 mph - N/A   Clear
7:15 PM 37.4 °F 27.5 °F 28.4 °F 70% 29.92 in 10.0 mi WNW 18.4 mph - N/A   Clear
7:35 PM 37.4 °F 27.2 °F 28.4 °F 70% 29.92 in 10.0 mi WNW 19.6 mph 25.3 mph N/A   Partly Cloudy
7:55 PM 37.4 °F 26.9 °F 28.4 °F 70% 29.93 in 10.0 mi WNW 20.7 mph 24.2 mph N/A   Scattered Clouds
8:15 PM 37.4 °F 24.6 °F 26.6 °F 65% 29.94 in 10.0 mi WNW 32.2 mph 40.3 mph N/A   Scattered Clouds
8:35 PM 35.6 °F 21.7 °F 21.2 °F 56% 29.96 in 10.0 mi NW 34.5 mph 44.9 mph N/A   Partly Cloudy
8:55 PM 33.8 °F 18.8 °F 19.4 °F 56% 29.99 in 10.0 mi WNW 36.8 mph 48.3 mph N/A   Clear
9:15 PM 28.4 °F 12.0 °F 15.8 °F 59% 30.01 in 10.0 mi NW 33.4 mph 47.2 mph N/A   Clear
9:35 PM 28.4 °F 11.4 °F 10.4 °F 47% 30.02 in 10.0 mi WNW 36.8 mph 48.3 mph N/A   Clear
9:55 PM 26.6 °F 9.3 °F 12.2 °F 55% 30.03 in 10.0 mi WNW 34.5 mph 41.4 mph N/A   Clear
10:15 PM 24.8 °F 7.6 °F 8.6 °F 50% 30.05 in 10.0 mi NW 31.1 mph 41.4 mph N/A   Clear
10:35 PM 24.8 °F 7.1 °F 8.6 °F 50% 30.07 in 10.0 mi WNW 33.4 mph 40.3 mph N/A   Clear
10:55 PM 23.0 °F 6.0 °F 10.4 °F 59% 30.09 in 10.0 mi WNW 27.6 mph 32.2 mph N/A   Clear
11:15 PM 21.2 °F 2.7 °F 8.6 °F 58% 30.10 in 10.0 mi WNW 31.1 mph 36.8 mph N/A   Clear
11:35 PM 19.4 °F 0.5 °F 6.8 °F 58% 30.11 in 10.0 mi NW 29.9 mph 41.4 mph N/A   Clear
11:55 PM 19.4 °F 3.2 °F 6.8 °F 58% 30.12 in 10.0 mi WNW 20.7 mph - N/A   Clear